Location: Newark
(52.8300°N, 8.0000°E)
Time: 16:05:56
(UTC+00:00)

STARLINK-1144 - Pass Details

Date: 29 January 2020
Orbit: 548 x 551 km, 53.0° (Epoch: 26 February)

Event Time Altitude Azimuth Distance (km) Brightness Sun altitude
Rises 18:33:04 0° 286° (WNW) 2,725 8.5 -22.0°
Reaches altitude 10° 18:35:31 10° 275° (W) 1,828 7.4 -22.4°
Maximum altitude 18:39:05 28° 216° (SW) 1,052 5.3 -22.9°
Enters shadow 18:40:38 22° 180° (S) 1,235 5.4 -23.1°
